Weather History for Lewisburg, WV

Change the Weather History Date:

Sunday, December 30, 2012

  Actual Average Record
Temperature  
Mean Temperature 20 °F 29 °F  
Max Temperature 24 °F 38 °F 61 °F (1996)
Min Temperature 17 °F 19 °F -1 °F (1983)
Degree Days  
Heating Degree Days 44    
Month to date heating degree days  
Since 1 July heating degree days  
Cooling Degree Days 0    
Month to date cooling degree days  
Year to date cooling degree days  
Moisture  
Dew Point 15 °F    
Average Humidity 76    
Maximum Humidity 86    
Minimum Humidity 63    
Precipitation  
Precipitation 0.00 in 0.10 in 0.00 in (2015)
Month to date precipitation 3.13  
Year to date precipitation 39.95  
Snow  
Snow 0.00 in - - ()
Month to date snowfall  
Since 1 July snowfall  
Snow Depth -    
Sea Level Pressure  
Sea Level Pressure 30.22 in    
Wind  
Wind Speed 9 mph (West)    
Max Wind Speed 15 mph    
Max Gust Speed 26 mph    
Visibility 7 miles    
Events Snow    
T = Trace of Precipitation, MM = Missing Value Source: NWS Daily Summary

Daily Weather History Graph

Daily Weather History Graph

Search for Another Location

Airport:

Trip Planner

Search our weather history database for the weather conditions in past years. The results will help you decide how hot, cold, wet, or windy it might be!

Date:

Astronomy

Dec. 30, 2012 Rise Set
Actual Time 7:36 AM EST 5:11 PM EST
Civil Twilight 7:07 AM EST 5:41 PM EST
Nautical Twilight 6:34 AM EST 6:14 PM EST
Astronomical Twilight 6:02 AM EST 6:46 PM EST
Moon 7:38 PM EST (12/30) 8:47 AM EST (12/30)
Length of Visible Light 10h 33m
Length of Day
9h 34m
Waning Gibbous, 95% of the Moon is Illuminated
Dec 30
Waning Gibbous
Jan 4
Last Quarter
Jan 11
New
Jan 18
First Quarter
Jan 26
Full

Hourly Weather History & Observations

Time (EST) Temp. Windchill Dew Point Humidity Pressure Visibility Wind Dir Wind Speed Gust Speed Precip Events Conditions
12:15 AM 24.8 °F 14.6 °F 19.4 °F 80% 29.94 in 3.0 mi WNW 10.4 mph 19.6 mph N/A Snow Light Snow
12:35 AM 24.8 °F 16.9 °F 19.4 °F 80% 29.95 in 2.5 mi West 6.9 mph 16.1 mph N/A Snow Light Snow
12:55 AM 24.8 °F 17.9 °F 19.4 °F 80% 29.95 in 3.0 mi NW 5.8 mph 9.2 mph N/A Snow Light Snow
1:15 AM 24.8 °F 16.9 °F 21.2 °F 86% 29.96 in 2.0 mi West 6.9 mph - N/A Snow Light Snow
1:35 AM 24.8 °F 14.6 °F 19.4 °F 80% 29.96 in 1.8 mi West 10.4 mph 19.6 mph N/A Snow Light Snow
1:55 AM 24.8 °F 13.4 °F 19.4 °F 80% 29.98 in 2.5 mi West 12.7 mph 20.7 mph N/A Snow Light Snow
2:15 AM 23.0 °F 10.1 °F 19.4 °F 86% 30.00 in 2.5 mi WNW 15.0 mph 25.3 mph N/A Snow Light Snow
2:35 AM 23.0 °F 11.7 °F 17.6 °F 80% 30.01 in 2.5 mi WNW 11.5 mph 17.3 mph N/A Snow Light Snow
2:55 AM 23.0 °F 13.9 °F 17.6 °F 80% 30.02 in 3.0 mi WNW 8.1 mph 18.4 mph N/A Snow Light Snow
3:15 AM 23.0 °F 14.7 °F 17.6 °F 80% 30.03 in 3.0 mi WNW 6.9 mph 20.7 mph N/A Snow Light Snow
3:35 AM 23.0 °F 14.7 °F 19.4 °F 86% 30.04 in 2.0 mi West 6.9 mph - N/A Snow Light Snow
3:55 AM 23.0 °F 10.6 °F 19.4 °F 86% 30.05 in 1.2 mi WNW 13.8 mph 18.4 mph N/A Snow Light Snow
4:15 AM 21.2 °F 9.5 °F 17.6 °F 86% 30.06 in 2.0 mi WNW 11.5 mph 17.3 mph N/A Snow Light Snow
4:35 AM 21.2 °F 10.1 °F 15.8 °F 80% 30.07 in 2.5 mi WNW 10.4 mph 24.2 mph N/A Snow Light Snow
4:55 AM 21.2 °F 8.9 °F 15.8 °F 80% 30.09 in 3.0 mi WNW 12.7 mph 18.4 mph N/A Snow Light Snow
5:15 AM 21.2 °F 8.9 °F 17.6 °F 86% 30.10 in 2.5 mi WNW 12.7 mph 21.9 mph N/A Snow Light Snow
5:35 AM 21.2 °F 8.3 °F 15.8 °F 80% 30.12 in 3.0 mi WNW 13.8 mph 19.6 mph N/A Snow Light Snow
5:55 AM 21.2 °F 11.7 °F 17.6 °F 86% 30.14 in 2.5 mi West 8.1 mph 18.4 mph N/A Snow Light Snow
6:15 AM 21.2 °F 10.1 °F 17.6 °F 86% 30.15 in 2.0 mi NW 10.4 mph - N/A Snow Light Snow
6:35 AM 21.2 °F 9.5 °F 15.8 °F 80% 30.17 in 1.8 mi WNW 11.5 mph 19.6 mph N/A Snow Light Snow
6:55 AM 21.2 °F 8.3 °F 15.8 °F 80% 30.19 in 2.5 mi WNW 13.8 mph 19.6 mph N/A Snow Light Snow
7:15 AM 21.2 °F 11.7 °F 14.0 °F 74% 30.20 in 3.0 mi WNW 8.1 mph 16.1 mph N/A Snow Light Snow
7:35 AM 21.2 °F 12.6 °F 15.8 °F 80% 30.21 in 3.0 mi WNW 6.9 mph 17.3 mph N/A Snow Light Snow
7:55 AM 21.2 °F 10.9 °F 15.8 °F 80% 30.22 in 2.5 mi WNW 9.2 mph 18.4 mph N/A Snow Light Snow
8:15 AM 21.2 °F 10.1 °F 15.8 °F 80% 30.24 in 1.8 mi WNW 10.4 mph 16.1 mph N/A Snow Light Snow
8:35 AM 21.2 °F 10.9 °F 15.8 °F 80% 30.25 in 1.0 mi WNW 9.2 mph - N/A Snow Light Snow
8:55 AM 21.2 °F 12.6 °F 15.8 °F 80% 30.27 in 1.5 mi WNW 6.9 mph - N/A Snow Light Snow
9:15 AM 21.2 °F 13.6 °F 14.0 °F 74% 30.27 in 2.0 mi WNW 5.8 mph 16.1 mph N/A Snow Light Snow
9:35 AM 21.2 °F 12.6 °F 14.0 °F 74% 30.28 in 3.0 mi West 6.9 mph - N/A Snow Light Snow
9:55 AM 21.2 °F 11.7 °F 14.0 °F 74% 30.29 in 7.0 mi WNW 8.1 mph - N/A Snow Light Snow
10:15 AM 21.2 °F 12.6 °F 12.2 °F 68% 30.30 in 10.0 mi WNW 6.9 mph - N/A   Overcast
10:35 AM 21.2 °F 12.6 °F 12.2 °F 68% 30.32 in 10.0 mi WNW 6.9 mph 16.1 mph N/A   Overcast
10:55 AM 21.2 °F 11.7 °F 12.2 °F 68% 30.31 in 10.0 mi WNW 8.1 mph - N/A Snow Light Snow
11:15 AM 23.0 °F 14.7 °F 12.2 °F 63% 30.30 in 10.0 mi NW 6.9 mph - N/A   Overcast
11:35 AM 23.0 °F 15.8 °F 12.2 °F 63% 30.30 in 10.0 mi WNW 5.8 mph - N/A   Overcast
11:55 AM 23.0 °F 17.0 °F 14.0 °F 68% 30.29 in 10.0 mi West 4.6 mph - N/A   Overcast
12:15 PM 24.8 °F 15.3 °F 14.0 °F 64% 30.28 in 10.0 mi WNW 9.2 mph - N/A   Mostly Cloudy
12:35 PM 24.8 °F 14.0 °F 14.0 °F 64% 30.27 in 10.0 mi West 11.5 mph - N/A   Scattered Clouds
12:55 PM 24.8 °F 13.4 °F 14.0 °F 64% 30.26 in 10.0 mi West 12.7 mph 17.3 mph N/A   Clear
1:15 PM 24.8 °F 12.4 °F 14.0 °F 64% 30.27 in 10.0 mi WNW 15.0 mph 21.9 mph N/A   Clear
1:35 PM 24.8 °F 13.4 °F 14.0 °F 64% 30.27 in 10.0 mi WNW 12.7 mph 19.6 mph N/A   Clear
1:55 PM 23.0 °F 10.6 °F 14.0 °F 68% 30.28 in 10.0 mi WNW 13.8 mph 21.9 mph N/A   Clear
2:15 PM 23.0 °F 10.1 °F 14.0 °F 68% 30.28 in 10.0 mi West 15.0 mph 26.5 mph N/A   Clear
2:35 PM 23.0 °F 12.4 °F 14.0 °F 68% 30.29 in 10.0 mi West 10.4 mph 16.1 mph N/A   Clear
2:55 PM 23.0 °F 12.4 °F 14.0 °F 68% 30.30 in 10.0 mi West 10.4 mph 19.6 mph N/A   Scattered Clouds
3:15 PM 23.0 °F 11.7 °F 14.0 °F 68% 30.31 in 10.0 mi West 11.5 mph 17.3 mph N/A   Scattered Clouds
3:35 PM 21.2 °F 10.1 °F 14.0 °F 74% 30.32 in 10.0 mi West 10.4 mph 16.1 mph N/A   Scattered Clouds
3:55 PM 21.2 °F 10.9 °F 14.0 °F 74% 30.32 in 10.0 mi West 9.2 mph - N/A   Scattered Clouds
4:15 PM 21.2 °F 12.6 °F 14.0 °F 74% 30.32 in 10.0 mi WNW 6.9 mph - N/A   Scattered Clouds
4:35 PM 21.2 °F 13.6 °F 14.0 °F 74% 30.32 in 10.0 mi WNW 5.8 mph - N/A   Scattered Clouds
4:55 PM 21.2 °F 10.1 °F 14.0 °F 74% 30.31 in 10.0 mi WNW 10.4 mph - N/A   Clear
5:15 PM 21.2 °F 13.6 °F 14.0 °F 74% 30.30 in 10.0 mi West 5.8 mph - N/A   Clear
5:35 PM 19.4 °F - 12.2 °F 74% 30.29 in 10.0 mi Calm Calm - N/A   Clear
5:55 PM 19.4 °F 10.4 °F 14.0 °F 80% 30.29 in 10.0 mi West 6.9 mph - N/A   Clear
6:15 PM 19.4 °F 12.8 °F 12.2 °F 74% 30.30 in 10.0 mi WSW 4.6 mph - N/A   Clear
6:35 PM 19.4 °F 11.5 °F 12.2 °F 74% 30.31 in 10.0 mi WSW 5.8 mph - N/A   Clear
6:55 PM 19.4 °F 9.5 °F 12.2 °F 74% 30.32 in 10.0 mi WSW 8.1 mph - N/A   Clear
7:15 PM 19.4 °F 10.4 °F 14.0 °F 80% 30.33 in 10.0 mi WSW 6.9 mph - N/A   Clear
7:35 PM 19.4 °F 10.4 °F 12.2 °F 74% 30.34 in 10.0 mi WSW 6.9 mph - N/A   Clear
7:55 PM 19.4 °F 10.4 °F 12.2 °F 74% 30.34 in 10.0 mi WSW 6.9 mph - N/A   Clear
8:15 PM 19.4 °F 8.6 °F 14.0 °F 80% 30.34 in 10.0 mi WSW 9.2 mph - N/A   Clear
8:35 PM 19.4 °F 11.5 °F 14.0 °F 80% 30.34 in 10.0 mi WSW 5.8 mph - N/A   Clear
8:55 PM 19.4 °F 12.8 °F 14.0 °F 80% 30.34 in 10.0 mi WSW 4.6 mph - N/A   Clear
9:15 PM 19.4 °F 14.3 °F 12.2 °F 74% 30.34 in 10.0 mi SSW 3.5 mph - N/A   Clear
9:35 PM 19.4 °F - 14.0 °F 80% 30.33 in 10.0 mi Calm Calm - N/A   Clear
9:55 PM 19.4 °F 12.8 °F 12.2 °F 74% 30.33 in 10.0 mi WSW 4.6 mph - N/A   Clear
10:15 PM 19.4 °F 14.3 °F 12.2 °F 74% 30.33 in 10.0 mi WSW 3.5 mph - N/A   Clear
10:35 PM 19.4 °F 11.5 °F 12.2 °F 74% 30.33 in 10.0 mi SW 5.8 mph - N/A   Clear
10:55 PM 17.6 °F 12.3 °F 12.2 °F 79% 30.33 in 10.0 mi WSW 3.5 mph - N/A   Clear
11:15 PM 19.4 °F 12.8 °F 12.2 °F 74% 30.31 in 10.0 mi SW 4.6 mph - N/A   Clear
11:35 PM 17.6 °F 10.7 °F 12.2 °F 79% 30.31 in 10.0 mi SSW 4.6 mph - N/A   Clear
11:55 PM 17.6 °F 10.7 °F 12.2 °F 79% 30.30 in 10.0 mi SSW 4.6 mph - N/A   Clear